Weather History for KFSE - March, 2012

Change the Weather History Date:

Sunday, March 4, 2012

  Actual Average Record
Temperature  
Mean Temperature 8 °F -  
Max Temperature 26 °F 29 °F 46 °F (1992)
Min Temperature -11 °F 8 °F -20 °F (1952)
Degree Days  
Heating Degree Days 58    
Moisture  
Dew Point -2 °F    
Average Humidity 73    
Maximum Humidity 86    
Minimum Humidity 54    
Precipitation  
Precipitation 0.00 in - - ()
Sea Level Pressure  
Sea Level Pressure 29.87 in    
Wind  
Wind Speed 0 mph (North)    
Max Wind Speed 0 mph    
Max Gust Speed -    
Visibility 7 miles    
Events Snow    
Averages and records for this station are not official NWS values.
T = Trace of Precipitation, MM = Missing Value Source: NWS Daily Summary

Daily Weather History Graph

Daily Weather History Graph

Search for Another Location

Airport or City:

Trip Planner

Search our weather history database for the weather conditions in past years. The results will help you decide how hot, cold, wet, or windy it might be!

Date:

Astronomy

Mar. 04, 2012 Rise Set
Actual Time 6:56 AM CST 6:13 PM CST
Civil Twilight 6:26 AM CST 6:44 PM CST
Nautical Twilight 5:50 AM CST 7:19 PM CST
Astronomical Twilight 5:14 AM CST 7:55 PM CST
Moon 2:13 PM CST (3/4) 4:32 AM CST (3/4)
Length of Visible Light 12h 18m
Length of Day
11h 16m
Waxing Gibbous, 84% of the Moon is Illuminated
Mar 4
Waxing Gibbous
Mar 8
Full
Mar 14
Last Quarter
Mar 22
New
Mar 30
First Quarter

Hourly Weather History & Observations

Time (CST) Temp. Windchill Dew Point Humidity Pressure Visibility Wind Dir Wind Speed Gust Speed Precip Events Conditions
12:15 AM -9.4 °F - -16.6 °F 71% 29.83 in 10.0 mi Calm Calm - N/A   Clear
12:35 AM -11.2 °F - -16.6 °F 77% 29.83 in 10.0 mi Calm Calm - N/A   Clear
12:55 AM -11.2 °F - -16.6 °F 77% 29.83 in 10.0 mi Calm Calm - N/A   Clear
1:15 AM -9.4 °F - -14.8 °F 77% 29.83 in 10.0 mi Calm Calm - N/A   Clear
1:35 AM -9.4 °F - -14.8 °F 77% 29.83 in 10.0 mi Calm Calm - N/A   Clear
1:55 AM -11.2 °F - -16.6 °F 77% 29.83 in 10.0 mi Calm Calm - N/A   Scattered Clouds
2:15 AM -11.2 °F - -16.6 °F 77% 29.83 in 10.0 mi Calm Calm - N/A   Mostly Cloudy
2:35 AM -11.2 °F - -16.6 °F 77% 29.82 in 5.0 mi Calm Calm - N/A Snow Light Snow
2:55 AM -11.2 °F - -16.6 °F 77% 29.82 in 7.0 mi Calm Calm - N/A Snow Light Snow
3:15 AM -11.2 °F - -16.6 °F 77% 29.81 in 10.0 mi Calm Calm - N/A   Scattered Clouds
3:35 AM -11.2 °F - -16.6 °F 77% 29.82 in 10.0 mi Calm Calm - N/A   Scattered Clouds
3:55 AM -11.2 °F - -18.4 °F 70% 29.81 in 10.0 mi Calm Calm - N/A   Clear
4:15 AM -9.4 °F - -14.8 °F 77% 29.80 in 10.0 mi Calm Calm - N/A   Scattered Clouds
4:35 AM -11.2 °F - -16.6 °F 77% 29.81 in 7.0 mi Calm Calm - N/A   Scattered Clouds
4:55 AM -11.2 °F - -16.6 °F 77% 29.81 in 10.0 mi Calm Calm - N/A   Scattered Clouds
5:15 AM -9.4 °F - -14.8 °F 77% 29.80 in 10.0 mi Calm Calm - N/A   Mostly Cloudy
5:35 AM -9.4 °F - -14.8 °F 77% 29.81 in 10.0 mi Calm Calm - N/A   Scattered Clouds
5:55 AM -9.4 °F - -14.8 °F 77% 29.82 in 10.0 mi Calm Calm - N/A Snow Light Snow
6:15 AM -9.4 °F - -14.8 °F 77% 29.83 in 10.0 mi Calm Calm - N/A   Clear
6:35 AM -9.4 °F - -14.8 °F 77% 29.83 in 7.0 mi Calm Calm - N/A Snow Light Snow
6:55 AM -9.4 °F - -14.8 °F 77% 29.83 in 10.0 mi Calm Calm - N/A   Clear
7:15 AM -9.4 °F - -14.8 °F 77% 29.84 in 10.0 mi Calm Calm - N/A   Clear
7:35 AM -9.4 °F - -14.8 °F 77% 29.84 in 10.0 mi Calm Calm - N/A   Clear
7:55 AM -7.6 °F - -11.2 °F 84% 29.84 in 10.0 mi Calm Calm - N/A   Clear
8:15 AM -5.8 °F - -9.4 °F 84% 29.84 in 10.0 mi Calm Calm - N/A   Clear
8:35 AM -2.2 °F - -7.6 °F 78% 29.84 in 10.0 mi Calm Calm - N/A   Scattered Clouds
8:55 AM 3.2 °F - -2.2 °F 78% 29.84 in 10.0 mi Calm Calm - N/A   Clear
9:15 AM 5.0 °F - -0.4 °F 78% 29.83 in 10.0 mi Calm Calm - N/A   Clear
9:36 AM 10.4 °F - 6.8 °F 85% 29.84 in 10.0 mi Calm Calm - N/A   Clear
9:55 AM 12.2 °F - 6.8 °F 79% 29.85 in 10.0 mi Calm Calm - N/A   Clear
10:15 AM 15.8 °F - 10.4 °F 79% 29.85 in 10.0 mi Calm Calm - N/A   Scattered Clouds
10:34 AM 19.4 °F - 12.2 °F 74% 29.85 in 10.0 mi Calm Calm - N/A   Scattered Clouds
10:55 AM 17.6 °F - 8.6 °F 68% 29.87 in 10.0 mi Calm Calm - N/A   Scattered Clouds
11:15 AM 17.6 °F - 8.6 °F 68% 29.88 in 10.0 mi Calm Calm - N/A   Scattered Clouds
11:36 AM 19.4 °F - 8.6 °F 63% 29.88 in 5.0 mi Calm Calm - N/A   Haze
11:55 AM 21.2 °F - 8.6 °F 58% 29.89 in 3.0 mi Calm Calm - N/A Snow Light Snow
12:15 PM 21.2 °F - 10.4 °F 63% 29.90 in 3.0 mi Calm Calm - N/A Snow Light Snow
12:34 PM 21.2 °F - 10.4 °F 63% 29.91 in 2.0 mi Calm Calm - N/A Snow Light Snow
12:55 PM 21.2 °F - 10.4 °F 63% 29.91 in 2.0 mi Calm Calm - N/A Snow Light Snow
1:15 PM 23.0 °F - 10.4 °F 59% 29.92 in 2.0 mi Calm Calm - N/A Snow Light Snow
1:35 PM 24.8 °F - 12.2 °F 59% 29.92 in 1.8 mi Calm Calm - N/A Snow Light Snow
1:55 PM 26.6 °F - 12.2 °F 55% 29.92 in 1.2 mi Calm Calm - N/A Snow Light Snow
2:15 PM 24.8 °F - 10.4 °F 54% 29.93 in 2.0 mi Calm Calm - N/A Snow Light Snow
2:34 PM 21.2 °F - 12.2 °F 68% 29.94 in 2.5 mi Calm Calm - N/A Snow Light Snow
2:55 PM 21.2 °F - 12.2 °F 68% 29.94 in 3.0 mi Calm Calm - N/A Snow Light Snow
3:15 PM 21.2 °F - 10.4 °F 63% 29.95 in 4.0 mi Calm Calm - N/A Snow Light Snow
3:35 PM 21.2 °F - 12.2 °F 68% 29.95 in 4.0 mi Calm Calm - N/A Snow Light Snow
3:55 PM 21.2 °F - 12.2 °F 68% 29.96 in 3.0 mi Calm Calm - N/A Snow Light Snow
4:15 PM 21.2 °F - 12.2 °F 68% 29.96 in 4.0 mi Calm Calm - N/A Snow Light Snow
4:35 PM 21.2 °F - 12.2 °F 68% 29.97 in 3.0 mi Calm Calm - N/A Snow Light Snow
4:55 PM 19.4 °F - 12.2 °F 74% 29.97 in 2.5 mi Calm Calm - N/A Snow Light Snow
5:15 PM 17.6 °F - 12.2 °F 79% 29.98 in 7.0 mi Calm Calm - N/A Snow Light Snow
5:35 PM 17.6 °F - 10.4 °F 73% 29.98 in 7.0 mi Calm Calm - N/A Snow Light Snow
5:55 PM 15.8 °F - 12.2 °F 86% 29.99 in 7.0 mi Calm Calm - N/A Snow Light Snow
6:15 PM 15.8 °F - 10.4 °F 79% 30.00 in 5.0 mi Calm Calm - N/A Snow Light Snow
6:35 PM 14.0 °F - 10.4 °F 86% 30.00 in 10.0 mi Calm Calm - N/A   Overcast
6:55 PM 12.2 °F - 8.6 °F 85% 30.01 in 10.0 mi Calm Calm - N/A Snow Light Snow
7:15 PM 8.6 °F - 6.8 °F 92% 30.01 in 10.0 mi Calm Calm - N/A   Clear
7:35 PM 6.8 °F - 5.0 °F 92% 30.01 in 10.0 mi Calm Calm - N/A   Scattered Clouds
7:55 PM 5.0 °F - 1.4 °F 85% 30.01 in 10.0 mi Calm Calm - N/A   Clear
8:15 PM 5.0 °F - 1.4 °F 85% 30.02 in 4.0 mi Calm Calm - N/A   Clear
8:35 PM 3.2 °F - -0.4 °F 85% 30.02 in 7.0 mi Calm Calm - N/A   Clear
8:55 PM -0.4 °F - -2.2 °F 92% 30.02 in 10.0 mi Calm Calm - N/A   Clear
9:15 PM -0.4 °F - -4.0 °F 85% 30.03 in 7.0 mi Calm Calm - N/A   Clear
9:55 PM 1.4 °F - -2.2 °F 85% 30.03 in 7.0 mi Calm Calm - N/A   Mostly Cloudy
10:15 PM -0.4 °F - -4.0 °F 85% 30.02 in 0.5 mi Calm Calm - N/A Snow Light Snow
10:35 PM 1.4 °F - -2.2 °F 85% 30.02 in 7.0 mi Calm Calm - N/A   Overcast
10:55 PM 1.4 °F - -0.4 °F 92% 30.03 in 0.8 mi Calm Calm - N/A Snow Light Snow
11:15 PM 3.2 °F - 1.4 °F 92% 30.03 in 5.0 mi Calm Calm - N/A Snow Light Snow
11:35 PM 8.6 °F - 8.6 °F 100% 30.02 in 3.0 mi Calm Calm - N/A Snow Light Snow
11:56 PM 10.4 °F -0.4 °F 8.6 °F 92% 30.02 in 5.0 mi SSW 6.9 mph - N/A Snow Light Snow